This is the latest recevied weather packets stored in our database for station/object EA1BQO-1. If no packets are shown the sender has not sent any weather packets the latest 10 day(s).
| Time | Temp. | Humidity | Pressure | Rain* | Wind** | Luminosity | Snow |
|---|---|---|---|---|---|---|---|
| 1777978604 | 13.33° C | 53% | 1010.8 hPa | 0 mm | - | - | - |
| 1777978004 | 13.33° C | 57% | 1010.8 hPa | 0 mm | - | - | - |
| 1777977404 | 12.78° C | 58% | 1011.1 hPa | 0 mm | - | - | - |
| 1777976804 | 13.33° C | 63% | 1011.1 hPa | 0 mm | - | - | - |
| 1777976204 | 12.22° C | 62% | 1011.2 hPa | 0 mm | - | - | - |
| 1777975604 | 12.22° C | 65% | 1011.2 hPa | 0 mm | - | - | - |
| 1777975004 | 12.22° C | 63% | 1011.2 hPa | 0 mm | - | - | - |
| 1777974404 | 11.67° C | 63% | 1011.1 hPa | 0 mm | - | - | - |
| 1777973804 | 11.11° C | 62% | 1011.1 hPa | 0 mm | - | - | - |
| 1777973204 | 11.67° C | 64% | 1011 hPa | 0 mm | - | - | - |
| 1777972604 | 11.67° C | 59% | 1011 hPa | 0 mm | - | - | - |
| 1777972004 | 12.22° C | 61% | 1010.9 hPa | 0 mm | - | - | - |
| 1777971404 | 11.67° C | 66% | 1010.9 hPa | 0 mm | - | - | - |
| 1777970804 | 11.11° C | 69% | 1011 hPa | 0 mm | - | - | - |
| 1777970204 | 10.56° C | 74% | 1011 hPa | 0 mm | - | - | - |
| 1777969604 | 9.44° C | 76% | 1011.1 hPa | 0 mm | - | - | - |
| 1777969004 | 9.44° C | 77% | 1011 hPa | 0 mm | - | - | - |
| 1777968404 | 9.44° C | 77% | 1011 hPa | 0 mm | - | - | - |
| 1777967804 | 9.44° C | 77% | 1011 hPa | 0 mm | - | - | - |
| 1777967204 | 8.89° C | 78% | 1011 hPa | 0 mm | - | - | - |
| 1777966604 | 9.44° C | 79% | 1011 hPa | 0 mm | - | - | - |
| 1777966004 | 9.44° C | 85% | 1011 hPa | 0 mm | - | - | - |
| 1777965404 | 8.89° C | 89% | 1011.1 hPa | 0 mm | - | - | - |
| 1777964804 | 8.33° C | 92% | 1011.2 hPa | 0 mm | - | - | - |
| 1777964203 | 7.78° C | 96% | 1011 hPa | 0 mm | - | - | - |
* Rain latest hour (hover to see other rain measurements)
** Current wind speed in m/s (hover to see current wind gust speed)